Year,Month,Day,Hour,Minute,Value (Times are PST for temperature in C)
2017,09,06,00,00,19.80
2017,09,06,00,01,19.80
2017,09,06,00,02,19.80
2017,09,06,00,03,19.80
2017,09,06,00,04,19.80
2017,09,06,00,05,19.80
2017,09,06,00,06,19.80
2017,09,06,00,07,19.80
2017,09,06,00,08,19.80
2017,09,06,00,09,19.80
2017,09,06,00,10,19.80
2017,09,06,00,11,19.80
2017,09,06,00,12,19.70
2017,09,06,00,13,19.70
2017,09,06,00,14,19.70
2017,09,06,00,15,19.70
2017,09,06,00,16,19.70
2017,09,06,00,17,19.70
2017,09,06,00,18,19.70
2017,09,06,00,19,19.60
2017,09,06,00,20,19.60
2017,09,06,00,21,19.60
2017,09,06,00,22,19.60
2017,09,06,00,23,19.60
2017,09,06,00,24,19.60
2017,09,06,00,25,19.60
2017,09,06,00,26,19.50
2017,09,06,00,27,19.50
2017,09,06,00,28,19.50
2017,09,06,00,29,19.50
2017,09,06,00,30,19.40
2017,09,06,00,31,19.40
2017,09,06,00,32,19.40
2017,09,06,00,33,19.40
2017,09,06,00,34,19.40
2017,09,06,00,35,19.40
2017,09,06,00,36,19.40
2017,09,06,00,37,19.40
2017,09,06,00,38,19.30
2017,09,06,00,39,19.30
2017,09,06,00,40,19.30
2017,09,06,00,41,19.30
2017,09,06,00,42,19.30
2017,09,06,00,43,19.30
2017,09,06,00,44,19.30
2017,09,06,00,45,19.30
2017,09,06,00,46,19.30
2017,09,06,00,47,19.30
2017,09,06,00,48,19.20
2017,09,06,00,49,19.20
2017,09,06,00,50,19.20
2017,09,06,00,51,19.20
2017,09,06,00,52,19.20
2017,09,06,00,53,19.20
2017,09,06,00,54,19.20
2017,09,06,00,55,19.20
2017,09,06,00,56,19.10
2017,09,06,00,57,19.10
2017,09,06,00,58,19.10
2017,09,06,00,59,19.10
2017,09,06,01,00,19.10
2017,09,06,01,01,19.10
2017,09,06,01,02,19.10
2017,09,06,01,03,19.10
2017,09,06,01,04,19.10
2017,09,06,01,05,19.00
2017,09,06,01,06,19.00
2017,09,06,01,07,19.00
2017,09,06,01,08,19.00
2017,09,06,01,09,19.00
2017,09,06,01,10,19.00
2017,09,06,01,11,19.00
2017,09,06,01,12,19.00
2017,09,06,01,13,19.00
2017,09,06,01,14,18.90
2017,09,06,01,15,18.90
2017,09,06,01,16,18.90
2017,09,06,01,17,18.90
2017,09,06,01,18,18.90
2017,09,06,01,19,18.90
2017,09,06,01,20,18.90
2017,09,06,01,21,18.90
2017,09,06,01,22,18.90
2017,09,06,01,23,18.90
2017,09,06,01,24,18.90
2017,09,06,01,25,18.90
2017,09,06,01,26,18.90
2017,09,06,01,27,18.90
2017,09,06,01,28,18.90
2017,09,06,01,29,18.90
2017,09,06,01,30,18.90
2017,09,06,01,31,18.90
2017,09,06,01,32,18.90
2017,09,06,01,33,18.90
2017,09,06,01,34,18.90
2017,09,06,01,35,18.90
2017,09,06,01,36,18.80
2017,09,06,01,37,18.80
2017,09,06,01,38,18.80
2017,09,06,01,39,18.80
2017,09,06,01,40,18.80
2017,09,06,01,41,18.80
2017,09,06,01,42,18.80
2017,09,06,01,43,18.80
2017,09,06,01,44,18.80
2017,09,06,01,45,18.70
2017,09,06,01,46,18.70
2017,09,06,01,47,18.70
2017,09,06,01,48,18.70
2017,09,06,01,49,18.70
2017,09,06,01,50,18.70
2017,09,06,01,51,18.70
2017,09,06,01,52,18.60
2017,09,06,01,53,18.60
2017,09,06,01,54,18.60
2017,09,06,01,55,18.60
2017,09,06,01,56,18.60
2017,09,06,01,57,18.50
2017,09,06,01,58,18.50
2017,09,06,01,59,18.50
2017,09,06,02,00,18.50
2017,09,06,02,01,18.40
2017,09,06,02,02,18.40
2017,09,06,02,03,18.40
2017,09,06,02,04,18.40
2017,09,06,02,05,18.40
2017,09,06,02,06,18.40
2017,09,06,02,07,18.40
2017,09,06,02,08,18.40
2017,09,06,02,09,18.40
2017,09,06,02,10,18.40
2017,09,06,02,11,18.30
2017,09,06,02,12,18.30
2017,09,06,02,13,18.30
2017,09,06,02,14,18.30
2017,09,06,02,15,18.30
2017,09,06,02,16,18.30
2017,09,06,02,17,18.30
2017,09,06,02,18,18.30
2017,09,06,02,19,18.30
2017,09,06,02,20,18.30
2017,09,06,02,21,18.30
2017,09,06,02,22,18.30
2017,09,06,02,23,18.30
2017,09,06,02,24,18.30
2017,09,06,02,25,18.30
2017,09,06,02,26,18.20
2017,09,06,02,27,18.20
2017,09,06,02,28,18.20
2017,09,06,02,29,18.20
2017,09,06,02,30,18.20
2017,09,06,02,31,18.20
2017,09,06,02,32,18.20
2017,09,06,02,33,18.10
2017,09,06,02,34,18.10
2017,09,06,02,35,18.10
2017,09,06,02,36,18.10
2017,09,06,02,37,18.10
2017,09,06,02,38,18.10
2017,09,06,02,39,18.10
2017,09,06,02,40,18.10
2017,09,06,02,41,18.10
2017,09,06,02,42,18.10
2017,09,06,02,43,18.10
2017,09,06,02,44,18.10
2017,09,06,02,45,18.10
2017,09,06,02,46,18.00
2017,09,06,02,47,18.00
2017,09,06,02,48,18.00
2017,09,06,02,49,18.00
2017,09,06,02,50,18.00
2017,09,06,02,51,18.00
2017,09,06,02,52,18.00
2017,09,06,02,53,18.00
2017,09,06,02,54,18.00
2017,09,06,02,55,17.90
2017,09,06,02,56,17.90
2017,09,06,02,57,17.90
2017,09,06,02,58,17.90
2017,09,06,02,59,17.90
2017,09,06,03,00,17.90
2017,09,06,03,01,17.90
2017,09,06,03,02,17.90
2017,09,06,03,03,17.90
2017,09,06,03,04,17.90
2017,09,06,03,05,17.80
2017,09,06,03,06,17.80
2017,09,06,03,07,17.80
2017,09,06,03,08,17.80
2017,09,06,03,09,17.80
2017,09,06,03,10,17.80
2017,09,06,03,11,17.80
2017,09,06,03,12,17.80
2017,09,06,03,13,17.80
2017,09,06,03,14,17.80
2017,09,06,03,15,17.80
2017,09,06,03,16,17.80
2017,09,06,03,17,17.80
2017,09,06,03,18,17.70
2017,09,06,03,19,17.70
2017,09,06,03,20,17.70
2017,09,06,03,21,17.70
2017,09,06,03,22,17.70
2017,09,06,03,23,17.70
2017,09,06,03,24,17.70
2017,09,06,03,25,17.70
2017,09,06,03,26,17.70
2017,09,06,03,27,17.70
2017,09,06,03,28,17.70
2017,09,06,03,29,17.70
2017,09,06,03,30,17.70
2017,09,06,03,31,17.60
2017,09,06,03,32,17.60
2017,09,06,03,33,17.60
2017,09,06,03,34,17.60
2017,09,06,03,35,17.60
2017,09,06,03,36,17.50
2017,09,06,03,37,17.50
2017,09,06,03,38,17.40
2017,09,06,03,39,17.40
2017,09,06,03,40,17.40
2017,09,06,03,41,17.40
2017,09,06,03,42,17.40
2017,09,06,03,43,17.40
2017,09,06,03,44,17.40
2017,09,06,03,45,17.40
2017,09,06,03,46,17.40
2017,09,06,03,47,17.40
2017,09,06,03,48,17.40
2017,09,06,03,49,17.40
2017,09,06,03,50,17.50
2017,09,06,03,51,17.50
2017,09,06,03,52,17.50
2017,09,06,03,53,17.50
2017,09,06,03,54,17.50
2017,09,06,03,55,17.50
2017,09,06,03,56,17.60
2017,09,06,03,57,17.60
2017,09,06,03,58,17.60
2017,09,06,03,59,17.60
2017,09,06,04,00,17.60
2017,09,06,04,01,17.60
2017,09,06,04,02,17.60
2017,09,06,04,03,17.60
2017,09,06,04,04,17.60
2017,09,06,04,05,17.50
2017,09,06,04,06,17.50
2017,09,06,04,07,17.50
2017,09,06,04,08,17.40
2017,09,06,04,09,17.40
2017,09,06,04,10,17.40
2017,09,06,04,11,17.40
2017,09,06,04,12,17.40
2017,09,06,04,13,17.40
2017,09,06,04,14,17.40
2017,09,06,04,15,17.40
2017,09,06,04,16,17.40
2017,09,06,04,17,17.40
2017,09,06,04,18,17.40
2017,09,06,04,19,17.40
2017,09,06,04,20,17.30
2017,09,06,04,21,17.30
2017,09,06,04,22,17.30
2017,09,06,04,23,17.30
2017,09,06,04,24,17.30
2017,09,06,04,25,17.20
2017,09,06,04,26,17.20
2017,09,06,04,27,17.20
2017,09,06,04,28,17.20
2017,09,06,04,29,17.20
2017,09,06,04,30,17.20
2017,09,06,04,31,17.20
2017,09,06,04,32,17.20
2017,09,06,04,33,17.20
2017,09,06,04,34,17.20
2017,09,06,04,35,17.10
2017,09,06,04,36,17.10
2017,09,06,04,37,17.10
2017,09,06,04,38,17.10
2017,09,06,04,39,17.10
2017,09,06,04,40,17.10
2017,09,06,04,41,17.10
2017,09,06,04,42,17.00
2017,09,06,04,43,17.00
2017,09,06,04,44,17.00
2017,09,06,04,45,17.00
2017,09,06,04,46,17.00
2017,09,06,04,47,16.90
2017,09,06,04,48,16.90
2017,09,06,04,49,16.90
2017,09,06,04,50,16.90
2017,09,06,04,51,16.90
2017,09,06,04,52,16.90
2017,09,06,04,53,16.80
2017,09,06,04,54,16.80
2017,09,06,04,55,16.80
2017,09,06,04,56,16.80
2017,09,06,04,57,16.80
2017,09,06,04,58,16.80
2017,09,06,04,59,16.70
2017,09,06,05,00,16.70
2017,09,06,05,01,16.70
2017,09,06,05,02,16.70
2017,09,06,05,03,16.70
2017,09,06,05,04,16.60
2017,09,06,05,05,16.60
2017,09,06,05,06,16.60
2017,09,06,05,07,16.60
2017,09,06,05,08,16.50
2017,09,06,05,09,16.50
2017,09,06,05,10,16.50
2017,09,06,05,11,16.40
2017,09,06,05,12,16.40
2017,09,06,05,13,16.40
2017,09,06,05,14,16.40
2017,09,06,05,15,16.40
2017,09,06,05,16,16.30
2017,09,06,05,17,16.30
2017,09,06,05,18,16.30
2017,09,06,05,19,16.30
2017,09,06,05,20,16.30
2017,09,06,05,21,16.30
2017,09,06,05,22,16.20
2017,09,06,05,23,16.20
2017,09,06,05,24,16.20
2017,09,06,05,25,16.20
2017,09,06,05,26,16.10
2017,09,06,05,27,16.10
2017,09,06,05,28,16.10
2017,09,06,05,29,16.10
2017,09,06,05,30,16.10
2017,09,06,05,31,16.10
2017,09,06,05,32,16.00
2017,09,06,05,33,16.00
2017,09,06,05,34,16.00
2017,09,06,05,35,16.00
2017,09,06,05,36,16.00
2017,09,06,05,37,16.00
2017,09,06,05,38,15.90
2017,09,06,05,39,15.90
2017,09,06,05,40,15.90
2017,09,06,05,41,15.90
2017,09,06,05,42,15.90
2017,09,06,05,43,15.90
2017,09,06,05,44,15.90
2017,09,06,05,45,15.80
2017,09,06,05,46,15.80
2017,09,06,05,47,15.80
2017,09,06,05,48,15.80
2017,09,06,05,49,15.80
2017,09,06,05,50,15.80
2017,09,06,05,51,15.80
2017,09,06,05,52,15.80
2017,09,06,05,53,15.70
2017,09,06,05,54,15.70
2017,09,06,05,55,15.70
2017,09,06,05,56,15.70
2017,09,06,05,57,15.70
2017,09,06,05,58,15.70
2017,09,06,05,59,15.70
2017,09,06,06,00,15.70
2017,09,06,06,01,15.60
2017,09,06,06,02,15.60
2017,09,06,06,03,15.60
2017,09,06,06,04,15.60
2017,09,06,06,05,15.60
2017,09,06,06,06,15.60
2017,09,06,06,07,15.60
2017,09,06,06,08,15.60
2017,09,06,06,09,15.50
2017,09,06,06,10,15.50
2017,09,06,06,11,15.50
2017,09,06,06,12,15.50
2017,09,06,06,13,15.50
2017,09,06,06,14,15.50
2017,09,06,06,15,15.50
2017,09,06,06,16,15.40
2017,09,06,06,17,15.40
2017,09,06,06,18,15.40
2017,09,06,06,19,15.40
2017,09,06,06,20,15.40
2017,09,06,06,21,15.40
2017,09,06,06,22,15.40
2017,09,06,06,23,15.40
2017,09,06,06,24,15.40
2017,09,06,06,25,15.30
2017,09,06,06,26,15.30
2017,09,06,06,27,15.30
2017,09,06,06,28,15.30
2017,09,06,06,29,15.30
2017,09,06,06,30,15.30
2017,09,06,06,31,15.30
2017,09,06,06,32,15.30
2017,09,06,06,33,15.30
2017,09,06,06,34,15.30
2017,09,06,06,35,15.30
2017,09,06,06,36,15.30
2017,09,06,06,37,15.30
2017,09,06,06,38,15.30
2017,09,06,06,39,15.30
2017,09,06,06,40,15.20
2017,09,06,06,41,15.20
2017,09,06,06,42,15.20
2017,09,06,06,43,15.20
2017,09,06,06,44,15.20
2017,09,06,06,45,15.20
2017,09,06,06,46,15.20
2017,09,06,06,47,15.20
2017,09,06,06,48,15.20
2017,09,06,06,49,15.20
2017,09,06,06,50,15.10
2017,09,06,06,51,15.10
2017,09,06,06,52,15.10
2017,09,06,06,53,15.10
2017,09,06,06,54,15.10
2017,09,06,06,55,15.10
2017,09,06,06,56,15.10
2017,09,06,06,57,15.10
2017,09,06,06,58,15.10
2017,09,06,06,59,15.10
2017,09,06,07,00,15.10
2017,09,06,07,01,15.10
2017,09,06,07,02,15.10
2017,09,06,07,03,15.10
2017,09,06,07,04,15.10
2017,09,06,07,05,15.10
2017,09,06,07,06,15.10
2017,09,06,07,07,15.10
2017,09,06,07,08,15.10
2017,09,06,07,09,15.10
2017,09,06,07,10,15.10
2017,09,06,07,11,15.10
2017,09,06,07,12,15.10
2017,09,06,07,13,15.10
2017,09,06,07,14,15.10
2017,09,06,07,15,15.10
2017,09,06,07,16,15.20
2017,09,06,07,17,15.20
2017,09,06,07,18,15.20
2017,09,06,07,19,15.20
2017,09,06,07,20,15.20
2017,09,06,07,21,15.20
2017,09,06,07,22,15.20
2017,09,06,07,23,15.20
2017,09,06,07,24,15.30
2017,09,06,07,25,15.30
2017,09,06,07,26,15.30
2017,09,06,07,27,15.40
2017,09,06,07,28,15.40
2017,09,06,07,29,15.40
2017,09,06,07,30,15.40
2017,09,06,07,31,15.50
2017,09,06,07,32,15.50
2017,09,06,07,33,15.50
2017,09,06,07,34,15.50
2017,09,06,07,35,15.60
2017,09,06,07,36,15.60
2017,09,06,07,37,15.60
2017,09,06,07,38,15.60
2017,09,06,07,39,15.60
2017,09,06,07,40,15.60
2017,09,06,07,41,15.60
2017,09,06,07,42,15.60
2017,09,06,07,43,15.60
2017,09,06,07,44,15.60
2017,09,06,07,45,15.60
2017,09,06,07,46,15.60
2017,09,06,07,47,15.60
2017,09,06,07,48,15.60
2017,09,06,07,49,15.60
2017,09,06,07,50,15.60
2017,09,06,07,51,15.60
2017,09,06,07,52,15.60
2017,09,06,07,53,15.60
2017,09,06,07,54,15.60
2017,09,06,07,55,15.60
2017,09,06,07,56,15.60
2017,09,06,07,57,15.60
2017,09,06,07,58,15.60
2017,09,06,07,59,15.60
2017,09,06,08,00,15.60
2017,09,06,08,01,15.60
2017,09,06,08,02,15.60
2017,09,06,08,03,15.60
2017,09,06,08,04,15.70
2017,09,06,08,05,15.60
2017,09,06,08,06,15.60
2017,09,06,08,07,15.60
2017,09,06,08,08,15.60
2017,09,06,08,09,15.60
2017,09,06,08,10,15.60
2017,09,06,08,11,15.60
2017,09,06,08,12,15.60
2017,09,06,08,13,15.60
2017,09,06,08,14,15.60
2017,09,06,08,15,15.50
2017,09,06,08,16,15.50
2017,09,06,08,17,15.50
2017,09,06,08,18,15.50
2017,09,06,08,19,15.40
2017,09,06,08,20,15.40
2017,09,06,08,21,15.40
2017,09,06,08,22,15.40
2017,09,06,08,23,15.40
2017,09,06,08,24,15.40
2017,09,06,08,25,15.40
2017,09,06,08,26,15.40
2017,09,06,08,27,15.40
2017,09,06,08,28,15.40
2017,09,06,08,29,15.40
2017,09,06,08,30,15.40
2017,09,06,08,31,15.40
2017,09,06,08,32,15.40
2017,09,06,08,33,15.40
2017,09,06,08,34,15.40
2017,09,06,08,35,15.40
2017,09,06,08,36,15.50
2017,09,06,08,37,15.50
2017,09,06,08,38,15.50
2017,09,06,08,39,15.50
2017,09,06,08,40,15.50
2017,09,06,08,41,15.60
2017,09,06,08,42,15.60
2017,09,06,08,43,15.60
2017,09,06,08,44,15.60
2017,09,06,08,45,15.60
2017,09,06,08,46,15.60
2017,09,06,08,47,15.60
2017,09,06,08,48,15.70
2017,09,06,08,49,15.70
2017,09,06,08,50,15.70
2017,09,06,08,51,15.70
2017,09,06,08,52,15.70
2017,09,06,08,53,15.80
2017,09,06,08,54,15.80
2017,09,06,08,55,15.80
2017,09,06,08,56,15.90
2017,09,06,08,57,15.90
2017,09,06,08,58,15.90
2017,09,06,08,59,15.90
2017,09,06,09,00,15.90
2017,09,06,09,01,16.00
2017,09,06,09,02,16.00
2017,09,06,09,03,16.00
2017,09,06,09,04,16.00
2017,09,06,09,05,16.10
2017,09,06,09,06,16.10
2017,09,06,09,07,16.10
2017,09,06,09,08,16.10
2017,09,06,09,09,16.10
2017,09,06,09,10,16.20
2017,09,06,09,11,16.20
2017,09,06,09,12,16.20
2017,09,06,09,13,16.20
2017,09,06,09,14,16.20
2017,09,06,09,15,16.30
2017,09,06,09,16,16.30
2017,09,06,09,17,16.30
2017,09,06,09,18,16.30
2017,09,06,09,19,16.40
2017,09,06,09,20,16.40
2017,09,06,09,21,16.40
2017,09,06,09,22,16.50
2017,09,06,09,23,16.50
2017,09,06,09,24,16.50
2017,09,06,09,25,16.50
2017,09,06,09,26,16.60
2017,09,06,09,27,16.60
2017,09,06,09,28,16.60
2017,09,06,09,29,16.60
2017,09,06,09,30,16.60
2017,09,06,09,31,16.60
2017,09,06,09,32,16.60
2017,09,06,09,33,16.70
2017,09,06,09,34,16.70
2017,09,06,09,35,16.70
2017,09,06,09,36,16.80
2017,09,06,09,37,16.80
2017,09,06,09,38,16.80
2017,09,06,09,39,16.80
2017,09,06,09,40,16.80
2017,09,06,09,41,16.70
2017,09,06,09,42,16.70
2017,09,06,09,43,16.70
2017,09,06,09,44,16.70
2017,09,06,09,45,16.60
2017,09,06,09,46,16.60
2017,09,06,09,47,16.60
2017,09,06,09,48,16.60
2017,09,06,09,49,16.60
2017,09,06,09,50,16.60
2017,09,06,09,51,16.60
2017,09,06,09,52,16.60
2017,09,06,09,53,16.60
2017,09,06,09,54,16.60
2017,09,06,09,55,16.60
2017,09,06,09,56,16.70
2017,09,06,09,57,16.70
2017,09,06,09,58,16.70
2017,09,06,09,59,16.70
2017,09,06,10,00,16.70
2017,09,06,10,01,16.80
2017,09,06,10,02,16.80
2017,09,06,10,03,16.90
2017,09,06,10,04,16.90
2017,09,06,10,05,16.90
2017,09,06,10,06,16.80
2017,09,06,10,07,16.80
2017,09,06,10,08,16.80
2017,09,06,10,09,16.70
2017,09,06,10,10,16.70
2017,09,06,10,11,16.70
2017,09,06,10,12,16.70
2017,09,06,10,13,16.70
2017,09,06,10,14,16.80
2017,09,06,10,15,16.70
2017,09,06,10,16,16.70
2017,09,06,10,17,16.70
2017,09,06,10,18,16.70
2017,09,06,10,19,16.70
2017,09,06,10,20,16.60
2017,09,06,10,21,16.70
2017,09,06,10,22,16.70
2017,09,06,10,23,16.70
2017,09,06,10,24,16.70
2017,09,06,10,25,16.80
2017,09,06,10,26,16.80
2017,09,06,10,27,16.90
2017,09,06,10,28,16.90
2017,09,06,10,29,16.90
2017,09,06,10,30,16.90
2017,09,06,10,31,16.90
2017,09,06,10,32,16.90
2017,09,06,10,33,16.90
2017,09,06,10,34,16.90
2017,09,06,10,35,17.00
2017,09,06,10,36,17.10
2017,09,06,10,37,17.20
2017,09,06,10,38,17.20
2017,09,06,10,39,17.20
2017,09,06,10,40,17.20
2017,09,06,10,41,17.20
2017,09,06,10,42,17.20
2017,09,06,10,43,17.20
2017,09,06,10,44,17.20
2017,09,06,10,45,17.20
2017,09,06,10,46,17.20
2017,09,06,10,47,17.30
2017,09,06,10,48,17.30
2017,09,06,10,49,17.30
2017,09,06,10,50,17.30
2017,09,06,10,51,17.30
2017,09,06,10,52,17.30
2017,09,06,10,53,17.30
2017,09,06,10,54,17.30
2017,09,06,10,55,17.30
2017,09,06,10,56,17.30
2017,09,06,10,57,17.30
2017,09,06,10,58,17.40
2017,09,06,10,59,17.40
2017,09,06,11,00,17.50
2017,09,06,11,01,17.60
2017,09,06,11,02,17.60
2017,09,06,11,03,17.60
2017,09,06,11,04,17.70
2017,09,06,11,05,17.70
2017,09,06,11,06,17.80
2017,09,06,11,07,17.90
2017,09,06,11,08,17.90
2017,09,06,11,09,17.90
2017,09,06,11,10,18.00
2017,09,06,11,11,18.00
2017,09,06,11,12,18.00
2017,09,06,11,13,17.90
2017,09,06,11,14,17.90
2017,09,06,11,15,17.90
2017,09,06,11,16,17.90
2017,09,06,11,17,17.90
2017,09,06,11,18,17.90
2017,09,06,11,19,17.90
2017,09,06,11,20,17.80
2017,09,06,11,21,17.80
2017,09,06,11,22,17.80
2017,09,06,11,23,17.80
2017,09,06,11,24,17.80
2017,09,06,11,25,17.80
2017,09,06,11,26,17.80
2017,09,06,11,27,17.80
2017,09,06,11,28,17.90
2017,09,06,11,29,18.00
2017,09,06,11,30,18.00
2017,09,06,11,31,18.10
2017,09,06,11,32,18.20
2017,09,06,11,33,18.20
2017,09,06,11,34,18.20
2017,09,06,11,35,18.20
2017,09,06,11,36,18.30
2017,09,06,11,37,18.30
2017,09,06,11,38,18.30
2017,09,06,11,39,18.40
2017,09,06,11,40,18.40
2017,09,06,11,41,18.40
2017,09,06,11,42,18.40
2017,09,06,11,43,18.50
2017,09,06,11,44,18.60
2017,09,06,11,45,18.60
2017,09,06,11,46,18.70
2017,09,06,11,47,18.80
2017,09,06,11,48,18.80
2017,09,06,11,49,18.80
2017,09,06,11,50,18.90
2017,09,06,11,51,18.90
2017,09,06,11,52,19.00
2017,09,06,11,53,19.00
2017,09,06,11,54,19.10
2017,09,06,11,55,19.10
2017,09,06,11,56,19.20
2017,09,06,11,57,19.30
2017,09,06,11,58,19.40
2017,09,06,11,59,19.40
2017,09,06,12,00,19.40
2017,09,06,12,01,19.40
2017,09,06,12,02,19.40
2017,09,06,12,03,19.40
2017,09,06,12,04,19.40
2017,09,06,12,05,19.40
2017,09,06,12,06,19.50
2017,09,06,12,07,19.50
2017,09,06,12,08,19.50
2017,09,06,12,09,19.50
2017,09,06,12,10,19.40
2017,09,06,12,11,19.40
2017,09,06,12,12,19.40
2017,09,06,12,13,19.40
2017,09,06,12,14,19.40
2017,09,06,12,15,19.40
2017,09,06,12,16,19.40
2017,09,06,12,17,19.40
2017,09,06,12,18,19.50
2017,09,06,12,19,19.50
2017,09,06,12,20,19.60
2017,09,06,12,21,19.70
2017,09,06,12,22,19.70
2017,09,06,12,23,19.80
2017,09,06,12,24,19.90
2017,09,06,12,25,19.90
2017,09,06,12,26,19.90
2017,09,06,12,27,19.90
2017,09,06,12,28,19.90
2017,09,06,12,29,19.90
2017,09,06,12,30,19.90
2017,09,06,12,31,19.90
2017,09,06,12,32,19.90
2017,09,06,12,33,19.90
2017,09,06,12,34,20.00
2017,09,06,12,35,20.00
2017,09,06,12,36,20.10
2017,09,06,12,37,20.20
2017,09,06,12,38,20.20
2017,09,06,12,39,20.30
2017,09,06,12,40,20.30
2017,09,06,12,41,20.30
2017,09,06,12,42,20.30
2017,09,06,12,43,20.30
2017,09,06,12,44,20.40
2017,09,06,12,45,20.40
2017,09,06,12,46,20.50
2017,09,06,12,47,20.50
2017,09,06,12,48,20.60
2017,09,06,12,49,20.60
2017,09,06,12,50,20.70
2017,09,06,12,51,20.70
2017,09,06,12,52,20.80
2017,09,06,12,53,20.90
2017,09,06,12,54,20.90
2017,09,06,12,55,21.00
2017,09,06,12,56,21.00
2017,09,06,12,57,21.10
2017,09,06,12,58,21.10
2017,09,06,12,59,21.20
2017,09,06,13,00,21.20
2017,09,06,13,01,21.30
2017,09,06,13,02,21.40
2017,09,06,13,03,21.50
2017,09,06,13,04,21.50
2017,09,06,13,05,21.60
2017,09,06,13,06,21.70
2017,09,06,13,07,21.80
2017,09,06,13,08,21.80
2017,09,06,13,09,21.90
2017,09,06,13,10,22.00
2017,09,06,13,11,22.00
2017,09,06,13,12,22.10
2017,09,06,13,13,22.10
2017,09,06,13,14,22.20
2017,09,06,13,15,22.20
2017,09,06,13,16,22.10
2017,09,06,13,17,22.10
2017,09,06,13,18,21.90
2017,09,06,13,19,21.80
2017,09,06,13,20,21.70
2017,09,06,13,21,21.60
2017,09,06,13,22,21.50
2017,09,06,13,23,21.40
2017,09,06,13,24,21.20
2017,09,06,13,25,21.10
2017,09,06,13,26,20.80
2017,09,06,13,27,20.60
2017,09,06,13,28,20.30
2017,09,06,13,29,20.00
2017,09,06,13,30,19.80
2017,09,06,13,31,19.70
2017,09,06,13,32,19.50
2017,09,06,13,33,19.30
2017,09,06,13,34,19.20
2017,09,06,13,35,19.10
2017,09,06,13,36,19.00
2017,09,06,13,37,18.80
2017,09,06,13,38,18.70
2017,09,06,13,39,18.70
2017,09,06,13,40,18.60
2017,09,06,13,41,18.60
2017,09,06,13,42,18.60
2017,09,06,13,43,18.60
2017,09,06,13,44,18.60
2017,09,06,13,45,18.70
2017,09,06,13,46,18.70
2017,09,06,13,47,18.80
2017,09,06,13,48,18.80
2017,09,06,13,49,18.90
2017,09,06,13,50,18.90
2017,09,06,13,51,19.00
2017,09,06,13,52,19.00
2017,09,06,13,53,19.10
2017,09,06,13,54,19.10
2017,09,06,13,55,19.20
2017,09,06,13,56,19.20
2017,09,06,13,57,19.30
2017,09,06,13,58,19.30
2017,09,06,13,59,19.40
2017,09,06,14,00,19.40
2017,09,06,14,01,19.50
2017,09,06,14,02,19.60
2017,09,06,14,03,19.60
2017,09,06,14,04,19.70
2017,09,06,14,05,19.80
2017,09,06,14,06,19.90
2017,09,06,14,07,20.00
2017,09,06,14,08,20.00
2017,09,06,14,09,20.10
2017,09,06,14,10,20.10
2017,09,06,14,11,20.20
2017,09,06,14,12,20.20
2017,09,06,14,13,20.20
2017,09,06,14,14,20.20
2017,09,06,14,15,20.30
2017,09,06,14,16,20.30
2017,09,06,14,17,20.30
2017,09,06,14,18,20.40
2017,09,06,14,19,20.50
2017,09,06,14,20,20.60
2017,09,06,14,21,20.60
2017,09,06,14,22,20.70
2017,09,06,14,23,20.80
2017,09,06,14,24,20.90
2017,09,06,14,25,21.00
2017,09,06,14,26,21.10
2017,09,06,14,27,21.20
2017,09,06,14,28,21.30
2017,09,06,14,29,21.30
2017,09,06,14,30,21.40
2017,09,06,14,31,21.50
2017,09,06,14,32,21.60
2017,09,06,14,33,21.70
2017,09,06,14,34,21.80
2017,09,06,14,35,21.90
2017,09,06,14,36,22.00
2017,09,06,14,37,22.00
2017,09,06,14,38,22.10
2017,09,06,14,39,22.20
2017,09,06,14,40,22.20
2017,09,06,14,41,22.20
2017,09,06,14,42,22.20
2017,09,06,14,43,22.10
2017,09,06,14,44,22.10
2017,09,06,14,45,22.00
2017,09,06,14,46,21.90
2017,09,06,14,47,21.90
2017,09,06,14,48,21.80
2017,09,06,14,49,21.80
2017,09,06,14,50,21.80
2017,09,06,14,51,21.70
2017,09,06,14,52,21.70
2017,09,06,14,53,21.60
2017,09,06,14,54,21.40
2017,09,06,14,55,21.30
2017,09,06,14,56,21.30
2017,09,06,14,57,21.20
2017,09,06,14,58,21.20
2017,09,06,14,59,21.20
2017,09,06,15,00,21.20
2017,09,06,15,01,21.20
2017,09,06,15,02,21.20
2017,09,06,15,03,21.30
2017,09,06,15,04,21.30
2017,09,06,15,05,21.30
2017,09,06,15,06,21.30
2017,09,06,15,07,21.30
2017,09,06,15,08,21.30
2017,09,06,15,09,21.30
2017,09,06,15,10,21.30
2017,09,06,15,11,21.30
2017,09,06,15,12,21.30
2017,09,06,15,13,21.20
2017,09,06,15,14,21.20
2017,09,06,15,15,21.20
2017,09,06,15,16,21.30
2017,09,06,15,17,21.30
2017,09,06,15,18,21.30
2017,09,06,15,19,21.30
2017,09,06,15,20,21.30
2017,09,06,15,21,21.40
2017,09,06,15,22,21.40
2017,09,06,15,23,21.50
2017,09,06,15,24,21.50
2017,09,06,15,25,21.60
2017,09,06,15,26,21.60
2017,09,06,15,27,21.60
2017,09,06,15,28,21.70
2017,09,06,15,29,21.60
2017,09,06,15,30,21.60
2017,09,06,15,31,21.60
2017,09,06,15,32,21.50
2017,09,06,15,33,21.50
2017,09,06,15,34,21.40
2017,09,06,15,35,21.40
2017,09,06,15,36,21.40
2017,09,06,15,37,21.30
2017,09,06,15,38,21.30
2017,09,06,15,39,21.30
2017,09,06,15,40,21.30
2017,09,06,15,41,21.30
2017,09,06,15,42,21.30
2017,09,06,15,43,21.30
2017,09,06,15,44,21.30
2017,09,06,15,45,21.30
2017,09,06,15,46,21.30
2017,09,06,15,47,21.30
2017,09,06,15,48,21.30
2017,09,06,15,49,21.30
2017,09,06,15,50,21.30
2017,09,06,15,51,21.30
2017,09,06,15,52,21.30
2017,09,06,15,53,21.30
2017,09,06,15,54,21.30
2017,09,06,15,55,21.40
2017,09,06,15,56,21.40
2017,09,06,15,57,21.40
2017,09,06,15,58,21.40
2017,09,06,15,59,21.40
2017,09,06,16,00,21.40
2017,09,06,16,01,21.30
2017,09,06,16,02,21.30
2017,09,06,16,03,21.30
2017,09,06,16,04,21.30
2017,09,06,16,05,21.30
2017,09,06,16,06,21.30
2017,09,06,16,07,21.30
2017,09,06,16,08,21.30
2017,09,06,16,09,21.30
2017,09,06,16,10,21.30
2017,09,06,16,11,21.30
2017,09,06,16,12,21.30
2017,09,06,16,13,21.30
2017,09,06,16,14,21.30
2017,09,06,16,15,21.30
2017,09,06,16,16,21.40
2017,09,06,16,17,21.40
2017,09,06,16,18,21.40
2017,09,06,16,19,21.40
2017,09,06,16,20,21.40
2017,09,06,16,21,21.50
2017,09,06,16,22,21.50
2017,09,06,16,23,21.60
2017,09,06,16,24,21.60
2017,09,06,16,25,21.60
2017,09,06,16,26,21.60
2017,09,06,16,27,21.60
2017,09,06,16,28,21.70
2017,09,06,16,29,21.70
2017,09,06,16,30,21.70
2017,09,06,16,31,21.70
2017,09,06,16,32,21.80
2017,09,06,16,33,21.80
2017,09,06,16,34,21.80
2017,09,06,16,35,21.80
2017,09,06,16,36,21.80
2017,09,06,16,37,21.90
2017,09,06,16,38,21.90
2017,09,06,16,39,21.80
2017,09,06,16,40,21.80
2017,09,06,16,41,21.80
2017,09,06,16,42,21.70
2017,09,06,16,43,21.60
2017,09,06,16,44,21.50
2017,09,06,16,45,21.50
2017,09,06,16,46,21.40
2017,09,06,16,47,21.40
2017,09,06,16,48,21.40
2017,09,06,16,49,21.30
2017,09,06,16,50,21.20
2017,09,06,16,51,21.10
2017,09,06,16,52,21.00
2017,09,06,16,53,21.00
2017,09,06,16,54,20.90
2017,09,06,16,55,20.80
2017,09,06,16,56,20.70
2017,09,06,16,57,20.70
2017,09,06,16,58,20.60
2017,09,06,16,59,20.50
2017,09,06,17,00,20.30
2017,09,06,17,01,20.10
2017,09,06,17,02,20.00
2017,09,06,17,03,19.80
2017,09,06,17,04,19.60
2017,09,06,17,05,19.40
2017,09,06,17,06,19.20
2017,09,06,17,07,19.00
2017,09,06,17,08,18.80
2017,09,06,17,09,18.60
2017,09,06,17,10,18.50
2017,09,06,17,11,18.30
2017,09,06,17,12,18.20
2017,09,06,17,13,18.10
2017,09,06,17,14,18.00
2017,09,06,17,15,17.90
2017,09,06,17,16,17.90
2017,09,06,17,17,17.90
2017,09,06,17,18,17.90
2017,09,06,17,19,17.90